Tracking 19794 objects as of 23-Jul-2019
HD Live streaming from Space Station
objects crossing your sky now

NOAA 16 DEB

Track NOAA 16 DEB now!
10-day predictions


NORAD ID: 41233
Int'l Code: 2000-055EN
Perigee: 841.4 km
Apogee: 910.2 km
Inclination: 98.8 °
Period: 102.3 minutes
Semi major axis: 7246 km
RCS: Unknown
Launch date: September 21, 2000
Source: United States (US)
Launch site: AIR FORCE WESTERN TEST RANGE (AFWTR)

Note: This is SATELLITE DEBRIS
aabbcc
Your satellite tracking list
Your tracking list is empty




NASA's NSSDC Master Catalog

Two Line Element Set (TLE):
1 41233U 00055EN  19203.37539146 +.00000324 +00000-0 +21653-3 0  9995
2 41233 098.8300 264.0211 0047437 099.7621 260.8910 14.07294179185316
Source of the keplerian elements: AFSPC